SL-14 DEB, 45316

Orbit data source: Space-Track

SL-14 DEB, 45316 is space debris in LEO originally from a launch on Thu, 15 Aug 1991 UTC launched from the Plesetsk Missile And Space Complex (PKMTR). Debris objects in space refer to the collection of defunct objects orbiting the Earth. Examples of debris include non-operational satellites, rocket bodies, and fragments generated from explosions, collisions, or faulty payload assembly.

Loading next visibility...
Identifier
45316, 1991-056BE
Orbit
LEO
Country
Flag of CISCIS
Related business
Manufacturer
Unknown
Mission
Spacecraft
Bus & Motor
Unknown
Mass
Unknown
Launch date (UTC)
1991-08-15 (35 years ago)
Launch vehicle
Unknown
Launch site
Plesetsk Missile And Space Complex (PKMTR)
Object type
Payload
Rocket body
Debris
Shape & HBR
Unknown shape, 0.2 m
Radar Cross Section
Small (<0.1 m²)

Expand to show TLE details & history
Last TLE update: 17 hours ago

TLE from 17 hours ago
0 SL-14 DEB
1 45316U 91056BE  26126.27986992  .00001285  00000-0  24981-2 0  9991
2 45316  82.5927 142.3616 0116852  85.5489 275.8981 13.33136117301462
Epoch: 2026-05-06T06:43Z
TLE epoch observation values (Epoch: 2026-05-06T06:43:00.761Z)
Latitude
-0.00006°
Longitude
177.46579°
Altitude
1,129.783 km
Speed
7.292 km/s
True Right ascension
09h 29m 26s
True Declination
0° 00' 00"
Sunlit
Object was in daylight at epoch
Visualization orbit readout
Latitude
Unknown
Longitude
Unknown
Altitude
Unknown
Speed
Unknown
Apparent Right ascension
Unknown
Apparent Declination
Unknown
Sunlit
N/A
Visualization observer readout
Local Sidereal Time
07:41:17
Azimuth
Unknown
Elevation
Unknown
Doppler factor
Unknown
Orbital elements
Apogee altitude
1,219.937 km
Perigee altitude
1,044.418 km
Semi-major axis
7,510.314 km
Eccentricity
0.01169
Inclination
82.5927°
RAAN
142.3616°
Arg. of periapsis
85.5489°
True anomaly
274.56428°
Mean anomaly
275.8981°
Eccentric anomaly
275.23138°
Mean motion
3.33469 °/min
Orbital period
107.96 mins
BSTAR
0.0024981
Loading maneuver chart data...
Computing Atmospheric mass density...
Loading historical data...
Loading historical data...
Loading historical data...
Loading historical data...
Loading historical data...
Loading historical data...
Loading historical data...

Documentation

Showing up to 5 results
|